This is the latest recevied weather packets stored in our database for station/object N0EDB-13. If no packets are shown the sender has not sent any weather packets the latest 10 day(s).
| Time | Temp. | Humidity | Pressure | Rain* | Wind** | Luminosity | Snow |
|---|---|---|---|---|---|---|---|
| 1777888696 | 6.67° C | 61% | 1504.1 hPa | 0 mm | - | 0 W/m² | - |
| 1777888395 | 6.67° C | 61% | 1503.8 hPa | 0 mm | - | 0 W/m² | - |
| 1777888095 | 6.67° C | 59% | 1503.5 hPa | 0 mm | - | 0 W/m² | - |
| 1777887794 | 6.67° C | 59% | 1503.3 hPa | 0 mm | - | 0 W/m² | - |
| 1777887494 | 6.67° C | 61% | 1503.2 hPa | 0 mm | - | 0 W/m² | - |
| 1777887193 | 6.67° C | 61% | 1502.9 hPa | 0 mm | - | 0 W/m² | - |
| 1777886893 | 6.67° C | 61% | 1502.6 hPa | 0 mm | - | 0 W/m² | - |
| 1777886592 | 7.22° C | 61% | 1502.4 hPa | 0 mm | - | 0 W/m² | - |
| 1777886291 | 7.22° C | 57% | 1502.4 hPa | 0 mm | - | 0 W/m² | - |
| 1777885991 | 7.22° C | 56% | 1501.4 hPa | 0 mm | - | 0 W/m² | - |
| 1777885690 | 7.78° C | 55% | 1499.8 hPa | 0 mm | - | 0 W/m² | - |
| 1777885389 | 7.78° C | 53% | 1499.6 hPa | 0 mm | - | 0 W/m² | - |
| 1777885088 | 7.78° C | 55% | 1500.9 hPa | 0 mm | - | 0 W/m² | - |
| 1777884787 | 7.22° C | 55% | 1501.2 hPa | 0 mm | - | 0 W/m² | - |
| 1777884486 | 7.78° C | 55% | 1500.8 hPa | 0 mm | - | 0 W/m² | - |
| 1777884186 | 7.78° C | 56% | 1500.4 hPa | 0 mm | - | 0 W/m² | - |
| 1777883885 | 8.33° C | 56% | 1499.5 hPa | 0 mm | - | 0 W/m² | - |
| 1777883584 | 8.33° C | 56% | 1498.8 hPa | 0 mm | - | 0 W/m² | - |
| 1777883283 | 8.33° C | 56% | 1498.5 hPa | 0 mm | - | 0 W/m² | - |
| 1777882982 | 8.89° C | 52% | 1498.4 hPa | 0 mm | - | 0 W/m² | - |
| 1777882681 | 8.89° C | 51% | 1497.9 hPa | 0 mm | - | 0 W/m² | - |
| 1777882381 | 8.89° C | 51% | 1497.5 hPa | 0 mm | - | 0 W/m² | - |
| 1777882081 | 8.89° C | 50% | 1497 hPa | 0 mm | - | 0 W/m² | - |
| 1777881780 | 8.89° C | 50% | 1497.1 hPa | 0 mm | - | 0 W/m² | - |
| 1777881479 | 8.89° C | 50% | 1497 hPa | 0 mm | - | 0 W/m² | - |
* Rain latest hour (hover to see other rain measurements)
** Current wind speed in m/s (hover to see current wind gust speed)